Regional Weather Roundup
Issued by NWS Spokane, WA

Home | Current Version | Previous Version | Text Only | Print | Product List | Glossary On
Versions: 1 2 3 4 5 6 7 8 9 10 11 12 13 14 15 16 17 18 19 20 21 22 23 24 25 26 27 28 29 30 31 32 33 34 35 36 37 38 39 40 41 42 43 44 45 46 47 48 49 50
000
NZUS01 KOTX 270505
RWROTX
EASTERN WASHINGTON/NORTHERN IDAHO ROUNDUP
NATIONAL WEATHER SERVICE, SPOKANE WA
900 PM PST THU FEB 26 2015

Note: "fair" indicated few or no clouds below 12,000 feet with no
significant weather and/or obstructions to visibility.

...NORTHEAST WASHINGTON AND NORTHERN IDAHO PANHANDLE...

CITY           SKY/WX    TMP DP  RH WIND       PRES   REMARKS
SPOKANE INTL   CLOUDY    36  33  89 CALM      29.92F
SPOKANE DOWNTO CLOUDY    37  30  75 CALM      29.95F
COEUR D ALENE  CLOUDY    36  28  75 NE7       29.93F
DEER PARK      CLOUDY    33  29  85 CALM      29.94F
SANDPOINT      CLOUDY    32  32 100 CALM      29.96S
BONNERS FERRY  CLOUDY    34  28  80 CALM      29.94F

...SOUTHEAST WASHINGTON AND SOUTHERN IDAHO PANHANDLE...

CITY           SKY/WX    TMP DP  RH WIND       PRES   REMARKS
WALLA WALLA    PTCLDY    42  35  76 E8        29.91F
PULLMAN/MOSCOW CLOUDY    37  32  82 E3        29.94F
LEWISTON       CLOUDY    43  38  82 NE3       29.95S
LOWELL           N/A     38  32  79 CALM      29.98S

...COLUMBIA BASIN...

CITY           SKY/WX    TMP DP  RH WIND       PRES   REMARKS
EPHRATA        CLOUDY    39  32  76 N5        29.91F
MOSES LAKE     CLOUDY    37  30  75 CALM      29.93F
TRI CITIES     CLOUDY    45  39  79 E6        29.92F
HERMISTON      CLOUDY    47  40  76 SE5       29.90F
PENDLETON      CLOUDY    43  38  82 E7        29.90F

...EAST SLOPES CASCADES...

CITY           SKY/WX    TMP DP  RH WIND       PRES   REMARKS
THE DALLES     MOCLDY    50  43  77 CALM      29.91F
YAKIMA         CLOUDY    50  38  63 N5        29.91F
ELLENSBURG     LGT RAIN  45  40  82 CALM      29.91F
WENATCHEE      CLOUDY    47  32  56 E8        29.90F
OMAK           CLOUDY    40  29  64 W5        29.92F

...SOUTHERN BRITISH COLUMBIA...

CITY           SKY/WX    TMP DP  RH WIND       PRES   REMARKS

...WESTERN MONTANA...

CITY           SKY/WX    TMP DP  RH WIND       PRES   REMARKS
MISSOULA       MOCLDY    29  14  53 E15       29.97F WCI  18

...NEIGHBORING CITIES...

CITY           SKY/WX    TMP DP  RH WIND       PRES   REMARKS
SEATTLE        LGT RAIN  50  47  89 SE7       29.89F FOG



USA.gov is the U.S. government's official web portal to all federal, state and local government web resources and services.